FW0372 Weather Reports


time (UTC)temp
C
wind
direction
speed
KPH
gust
KPH
rain 1hr
cm
rain 24hr
cm
rain mn
cm
humidity
%
barometer
mb
20211025045851 21 180 0.0 0.0 0.00 0.00 0.00 66 1010.6
20211025045345 21 180 0.0 0.0 0.00 0.00 0.00 66 1010.5
20211025044837 22 180 0.0 1.6 0.00 0.00 0.00 66 1010.7
20211025044331 22 180 0.0 1.6 0.00 0.00 0.00 66 1010.7
20211025043335 22 180 0.0 4.8 0.00 0.00 0.00 65 1010.6
20211025042334 22 219 0.0 1.6 0.00 0.00 0.00 65 1010.5
20211025041346 22 219 0.0 3.2 0.00 0.00 0.00 64 1010.5
20211025040329 22 219 0.0 3.2 0.00 0.00 0.00 63 1010.4
20211025035338 22 219 0.0 3.2 0.00 0.00 0.00 63 1010.4
20211025033829 22 184 0.0 4.8 0.00 0.00 0.00 63 1009.9
20211025032842 23 175 0.0 4.8 0.00 0.00 0.00 62 1009.9
20211025031845 23 157 0.0 3.2 0.00 0.00 0.00 62 1009.7
20211025031326 23 138 0.0 4.8 0.00 0.00 0.00 62 1009.6
20211025030333 22 134 0.0 3.2 0.00 0.00 0.00 62 1009.4
20211025025339 22 175 0.0 6.4 0.00 0.00 0.00 62 1009.3
20211025024324 22 176 0.0 4.8 0.00 0.00 0.00 63 1009.1
20211025023341 22 198 0.0 4.8 0.00 0.00 0.00 63 1009.1
20211025022830 22 138 0.0 3.2 0.00 0.00 0.00 63 1009.1
20211025021842 22 193 0.0 1.6 0.00 0.00 0.00 62 1009.0
20211025020832 23 193 0.0 0.0 0.00 0.00 0.00 61 1008.7
20211025015837 23 193 0.0 0.0 0.00 0.00 0.00 61 1008.5
20211025014827 23 193 0.0 0.0 0.00 0.00 0.00 60 1008.5
20211025013837 23 193 0.0 0.0 0.00 0.00 0.00 59 1008.4
20211025012838 23 193 0.0 3.2 0.00 0.00 0.00 59 1008.5
20211025011842 24 128 0.0 4.8 0.00 0.00 0.00 58 1008.5
20211025010829 24 139 0.0 1.6 0.00 0.00 0.00 58 1008.5
20211025005842 24 139 0.0 3.2 0.00 0.00 0.00 57 1008.4
20211025005337 24 139 0.0 3.2 0.00 0.00 0.00 56 1008.2
20211025004343 25 139 0.0 3.2 0.00 0.00 0.00 56 1008.1
20211025003824 25 161 0.0 3.2 0.00 0.00 0.00 55 1008.0
20211025002831 25 160 0.0 4.8 0.00 0.00 0.00 55 1008.2
20211025001841 25 104 0.0 4.8 0.00 0.00 0.00 54 1008.1
20211025000828 26 100 0.0 6.4 0.00 0.00 0.00 53 1008.1
20211024235837 26 123 0.0 3.2 0.00 0.00 0.00 52 1008.0
20211024234842 26 123 0.0 3.2 0.00 0.00 0.00 51 1008.2
20211024234321 26 123 0.0 4.8 0.00 0.00 0.00 50 1008.1
20211024233330 27 225 0.0 6.4 0.00 0.00 0.00 49 1008.1
20211024232828 27 108 1.6 8.0 0.00 0.00 0.00 49 1007.8
20211024231831 27 174 3.2 11.3 0.00 0.00 0.00 48 1008.1
20211024230839 27 114 3.2 16.1 0.00 0.00 0.00 48 1008.0
20211024225826 27 278 1.6 11.3 0.00 0.00 0.00 47 1008.4
20211024224831 27 175 4.8 22.5 0.00 0.00 0.00 47 1008.1
20211024223840 28 199 4.8 14.5 0.00 0.00 0.00 46 1008.0
20211024222824 28 242 3.2 12.9 0.00 0.00 0.00 46 1008.1
20211024221833 28 120 4.8 12.9 0.00 0.00 0.00 45 1008.2
20211024220839 28 149 6.4 14.5 0.00 0.00 0.00 44 1008.2
20211024215824 29 232 4.8 16.1 0.00 0.00 0.00 43 1007.9
20211024214834 29 186 6.4 25.7 0.00 0.00 0.00 42 1007.6
20211024213839 29 53 6.4 17.7 0.00 0.00 0.00 43 1007.8
20211024212843 29 261 3.2 9.7 0.00 0.00 0.00 43 1007.7
20211024211828 28 143 8.0 20.9 0.00 0.00 0.00 43 1007.8
20211024210833 29 240 4.8 17.7 0.00 0.00 0.00 44 1007.6
20211024210332 28 160 6.4 17.7 0.00 0.00 0.00 43 1007.7
20211024205339 28 261 4.8 16.1 0.00 0.00 0.00 44 1007.9
20211024204343 28 215 4.8 24.1 0.00 0.00 0.00 43 1008.0
20211024203326 29 242 6.4 20.9 0.00 0.00 0.00 43 1007.8
20211024202332 28 225 3.2 20.9 0.00 0.00 0.00 44 1007.7
20211024201345 29 105 6.4 22.5 0.00 0.00 0.00 43 1007.5
20211024200332 28 327 6.4 22.5 0.00 0.00 0.00 45 1007.7
20211024195333 28 253 6.4 19.3 0.00 0.00 0.00 45 1007.8
20211024194340 28 119 12.9 27.4 0.00 0.00 0.00 44 1007.9
20211024193821 28 151 8.0 24.1 0.00 0.00 0.00 46 1007.8
20211024192835 28 181 6.4 22.5 0.00 0.00 0.00 45 1008.1
20211024191840 28 220 9.7 24.1 0.00 0.00 0.00 46 1008.1
20211024190828 28 171 6.4 19.3 0.00 0.00 0.00 48 1008.5
20211024185842 28 192 4.8 33.8 0.00 0.00 0.00 47 1008.4
20211024185323 28 107 4.8 20.9 0.00 0.00 0.00 48 1008.7
20211024184332 27 216 9.7 19.3 0.00 0.00 0.00 50 1008.8
20211024182842 27 151 9.7 24.1 0.00 0.00 0.00 48 1009.4
20211024182324 27 72 3.2 24.1 0.00 0.00 0.00 50 1009.3
20211024181329 27 175 8.0 20.9 0.00 0.00 0.00 51 1009.3
20211024180341 27 173 8.0 24.1 0.00 0.00 0.00 51 1009.7
20211024175328 27 355 6.4 25.7 0.00 0.00 0.00 52 1009.8
20211024174332 27 223 8.0 25.7 0.00 0.00 0.00 52 1009.9
20211024173342 26 155 9.7 20.9 0.00 0.00 0.00 53 1010.0
20211024172824 26 112 6.4 22.5 0.00 0.00 0.00 54 1010.3
20211024171834 26 207 6.4 25.7 0.00 0.00 0.00 54 1010.4
20211024170841 26 278 6.4 20.9 0.00 0.00 0.00 55 1010.5
20211024165826 25 234 9.7 19.3 0.00 0.00 0.00 56 1010.8
20211024164832 25 106 6.4 24.1 0.00 0.00 0.00 56 1010.9
20211024163841 25 113 3.2 14.5 0.00 0.00 0.00 57 1010.7
20211024162839 25 241 9.7 19.3 0.00 0.00 0.00 56 1010.7
20211024162337 25 161 3.2 19.3 0.00 0.00 0.00 57 1010.8
20211024161326 25 129 8.0 20.9 0.00 0.00 0.00 57 1011.0
20211024160335 25 181 9.7 24.1 0.00 0.00 0.00 56 1010.8
20211024155339 25 40 9.7 22.5 0.00 0.00 0.00 57 1010.8
20211024154823 25 235 4.8 22.5 0.00 0.00 0.00 58 1010.6
20211024154321 24 71 6.4 19.3 0.00 0.00 0.00 58 1010.6
20211024153330 23 167 4.8 19.3 0.00 0.00 0.00 60 1010.7
20211024151326 22 224 8.0 25.7 0.00 0.00 0.00 61 1011.1
20211024150331 22 98 4.8 17.7 0.00 0.00 0.00 61 1011.3
20211024145338 22 149 8.0 19.3 0.00 0.00 0.00 61 1011.1
20211024144824 22 68 3.2 16.1 0.00 0.00 0.00 61 1011.2
20211024143829 21 155 4.8 16.1 0.00 0.00 0.00 62 1011.1
20211024142836 20 147 3.2 12.9 0.00 0.00 0.00 63 1011.3
20211024142338 20 135 3.2 16.1 0.00 0.00 0.00 63 1011.3
20211024141824 19 229 4.8 16.1 0.00 0.00 0.00 64 1011.2
20211024140829 19 186 1.6 9.7 0.00 0.00 0.00 65 1011.3
20211024135833 19 114 1.6 9.7 0.00 0.00 0.00 66 1011.2
20211024134840 18 197 0.0 6.4 0.00 0.00 0.00 68 1011.2
20211024134321 18 90 0.0 8.0 0.00 0.00 0.00 69 1011.3
20211024133331 18 186 0.0 6.4 0.00 0.00 0.00 72 1011.2
20211024132341 18 163 1.6 4.8 0.00 0.00 0.00 73 1010.9
20211024131327 18 111 0.0 4.8 0.00 0.00 0.00 73 1010.9
20211024130333 18 161 0.0 3.2 0.00 0.00 0.00 73 1010.7
20211024125338 18 161 0.0 1.6 0.00 0.00 0.00 73 1010.6
20211024124328 18 161 0.0 4.8 0.00 0.00 0.00 72 1010.5
20211024123340 18 128 0.0 1.6 0.00 0.00 0.00 70 1010.4
20211024122831 18 128 0.0 1.6 0.00 0.00 0.00 70 1010.4
20211024121838 18 128 0.0 0.0 0.00 0.00 0.00 69 1010.4
20211024121324 18 128 0.0 0.0 0.00 0.00 0.00 69 1010.5
20211024120331 18 128 0.0 1.6 0.00 0.00 0.00 69 1010.3
20211024115338 18 128 0.0 0.0 0.00 0.00 0.00 69 1010.2
20211024114820 18 128 0.0 0.0 0.00 0.00 0.00 68 1010.3
20211024113849 19 128 0.0 4.8 0.00 0.00 0.00 69 1010.2
20211024112902 19 132 0.0 9.7 0.00 0.00 0.00 69 1010.1
20211024111837 19 121 0.0 3.2 0.00 0.00 0.00 69 1010.2
20211024110849 19 114 0.0 0.0 0.00 0.00 0.00 69 1010.1
20211024105854 20 117 0.0 3.2 0.00 0.00 0.00 69 1010.0
20211024105338 20 144 0.0 8.0 0.00 0.00 0.00 69 1010.1
20211024104342 20 113 0.0 4.8 0.00 0.00 0.00 69 1009.9
20211024103348 20 90 0.0 4.8 0.00 0.00 0.00 69 1009.8
20211024102353 20 121 1.6 6.4 0.00 0.00 0.00 68 1009.8
20211024101838 20 74 0.0 4.8 0.00 0.00 0.00 68 1009.7
20211024100850 20 31 0.0 4.8 0.00 0.00 0.00 67 1009.8
20211024095859 20 106 0.0 6.4 0.00 0.00 0.00 67 1009.8
20211024094844 20 98 0.0 9.7 0.00 0.00 0.00 67 1009.6
20211024093850 20 155 0.0 8.0 0.00 0.00 0.00 67 1009.7
20211024093331 20 127 1.6 8.0 0.00 0.00 0.00 67 1009.6
20211024092340 20 91 0.0 6.4 0.00 0.00 0.00 67 1009.7
20211024091347 20 187 0.0 9.7 0.00 0.00 0.00 67 1009.8
20211024090348 20 121 0.0 4.8 0.00 0.00 0.00 67 1009.8
20211024085343 21 75 0.0 3.2 0.00 0.00 0.00 67 1010.0
20211024084353 21 78 0.0 4.8 0.00 0.00 0.00 66 1010.0
20211024082834 21 165 0.0 6.4 0.00 0.00 0.00 66 1010.1
20211024081844 21 103 0.0 4.8 0.00 0.00 0.00 67 1010.2
20211024080852 21 138 0.0 3.2 0.00 0.00 0.00 67 1010.2
20211024080335 21 140 1.6 4.8 0.00 0.00 0.00 67 1010.4
20211024075344 21 130 1.6 9.7 0.00 0.00 0.00 67 1010.4
20211024074353 21 98 1.6 6.4 0.00 0.00 0.00 67 1010.5
20211024073835 22 74 1.6 6.4 0.00 0.00 0.00 68 1010.5
20211024072840 22 80 3.2 11.3 0.00 0.00 0.00 68 1010.5
20211024071848 22 121 1.6 8.0 0.00 0.00 0.00 68 1010.6
20211024070856 22 138 0.0 9.7 0.00 0.00 0.00 67 1010.5
20211024065837 22 196 3.2 11.3 0.00 0.00 0.00 67 1010.5
20211024064848 22 49 3.2 12.9 0.00 0.00 0.00 67 1010.5
20211024063851 22 201 0.0 11.3 0.00 0.00 0.00 68 1010.5
20211024062837 22 99 1.6 12.9 0.00 0.00 0.00 67 1010.6
20211024061841 22 105 3.2 12.9 0.00 0.00 0.00 67 1010.5
20211024060856 22 159 3.2 9.7 0.00 0.00 0.00 67 1010.6
20211024060334 22 259 0.0 8.0 0.00 0.00 0.00 67 1010.5
20211024055344 22 166 3.2 9.7 0.00 0.00 0.00 67 1010.5
20211024054354 22 76 3.2 8.0 0.00 0.00 0.00 66 1010.5
20211024053837 22 153 1.6 9.7 0.00 0.00 0.00 66 1010.4
20211024052850 22 150 4.8 12.9 0.00 0.00 0.00 66 1010.4
20211024051853 23 200 3.2 8.0 0.00 0.00 0.00 66 1010.4
20211024050843 23 261 3.2 14.5 0.00 0.00 0.00 65 1010.3